#timestamp,LO_Frequency,Hit,StdDev 
1512468015.2,286046996.1,P
1512468035.1,286046997.0,N
1512468036.0,286046997.0,N
1512468055.8,286047002.7,N
1512468075.6,286047001.4,N
1512468095.5,286046999.9,N
1512468115.3,286047002.3,N
1512468135.1,286047002.1,N
1512468155.9,286047002.0,N
1512468175.7,286047005.2,N
1512468195.5,286047004.0,N
1512468215.3,286047003.2,N
1512468235.2,286047007.2,N
1512468255.0,286047010.6,N
1512468255.9,286047010.6,N
1512468275.7,286047011.0,N
1512468295.6,286047009.4,N
1512468315.4,286047004.6,N
1512468335.2,286047010.6,N
1512468355.1,286047011.5,N
1512468356.0,286047011.5,N
1512468375.8,286047012.7,N
1512468395.6,286047013.2,N
1512468415.5,286047014.4,N
1512468435.3,286047016.7,N
1512468455.1,286047018.6,N
1512468475.9,286047020.4,Y
1512468495.7,286047012.7,P
1512468515.5,286047014.1,P
1512468535.4,286047019.6,P
1512468555.2,286047021.1,Y
1512468575.0,286047008.2,P
1512468575.9,286047008.2,P
1512468595.8,286047008.6,P
1512468615.6,286047008.2,Y
1512468635.4,286046998.7,P
1512468655.3,286047000.5,N
1512468675.1,286046999.2,N
1512468676.0,286046999.2,N
1512468695.8,286047002.7,N
1512468715.7,286046999.8,N
1512468735.5,286047005.0,N
1512468755.3,286047005.2,N
1512468775.1,286047006.8,N
1512468795.9,286047006.1,N
1512468815.7,286047007.2,N
1512468835.5,286047003.3,N
1512468855.4,286047003.4,N
1512468875.2,286047002.1,N
1512468895.0,286047005.7,N
1512468895.9,286047005.7,N
1512468915.8,286047003.4,N
1512468935.6,286047005.4,N
1512468955.4,286047004.9,N
1512468975.3,286047004.3,N
1512468995.1,286047005.6,N
1512468996.0,286047005.6,N
1512469015.8,286047003.1,N
1512469035.7,286047005.1,N
1512469055.5,286047005.7,N
1512469075.3,286047006.9,N
1512469095.2,286047007.6,N
1512469115.9,286047008.1,N
1512469135.7,286047011.4,Y
1512469155.6,286047007.6,P
1512469175.4,286047004.5,N
1512469195.2,286047005.3,P
1512469215.1,286047004.8,Y
1512469216.0,286047004.8,P
1512469235.8,286046997.2,P
1512469255.6,286046994.3,N
1512469275.5,286046990.4,N
1512469295.3,286046991.8,N
1512469315.1,286046994.3,N
1512469335.8,286046995.0,N
1512469355.7,286046996.4,N
1512469375.5,286046993.4,N
1512469395.3,286046996.9,N
1512469415.2,286046998.2,N
1512469435.9,286046999.5,N
1512469455.7,286046995.3,N
1512469475.6,286046992.5,N
1512469495.4,286046990.5,N
1512469515.2,286046992.9,N
1512469535.1,286046990.2,N
1512469536.0,286046990.2,N
1512469555.8,286046992.9,N
1512469575.6,286046991.7,N
1512469595.5,286046990.9,N
1512469615.3,286046989.0,N
1512469635.1,286046989.6,N
1512469655.8,286046989.6,N
1512469675.7,286046987.8,N
1512469695.5,286046990.8,N
1512469715.3,286046989.4,N
1512469735.2,286046989.2,N
1512469755.9,286046991.5,N
1512469775.7,286046990.3,N
1512469795.6,286046988.2,Y
1512469815.4,286046998.0,P
1512469835.2,286046995.7,N
1512469855.1,286047000.6,N
1512469856.0,286047000.6,N
1512469875.8,286046999.9,N
1512469895.6,286046998.4,N
1512469915.5,286046996.9,N
1512469935.3,286046997.9,N
1512469955.1,286046991.9,Y
1512469975.9,286046992.5,P
1512469995.7,286046994.5,N
1512470015.5,286046995.8,N
1512470035.4,286047001.2,N
1512470055.2,286046998.8,N
1512470075.0,286046997.3,N
1512470075.9,286046997.3,N
1512470095.8,286046995.9,N
1512470115.6,286046995.6,N
1512470135.4,286046995.2,N
1512470155.2,286046993.8,N
1512470175.1,286046993.6,N
1512470176.0,286046993.6,N
1512470195.8,286046994.3,N
1512470215.6,286046994.7,N
1512470235.5,286046993.7,N
1512470255.3,286046993.8,N
1512470275.1,286046992.4,Y
1512470295.9,286046995.7,P
1512470315.7,286046997.9,P
1512470335.5,286047000.8,N
1512470355.4,286047000.2,N
1512470375.2,286047001.2,N
1512470395.0,286047002.1,N
1512470395.9,286047002.1,N
1512470415.8,286047001.7,N
1512470435.6,286047002.1,N
1512470455.4,286047002.2,N
1512470475.3,286047005.8,N
1512470495.1,286047005.8,N
1512470496.0,286047005.8,N
1512470515.8,286047003.0,N
1512470535.7,286047010.3,Y
1512470555.5,286047004.9,P
1512470575.3,286047005.3,P
1512470595.2,286047004.7,N
1512470615.9,286047009.1,Y
1512470635.7,286047005.0,P
1512470655.6,286047007.6,P
1512470675.4,286047007.3,P
1512470695.2,286047004.4,N
1512470715.1,286047005.7,Y
1512470716.0,286047005.7,P
1512470735.8,286047005.7,P
1512470755.6,286047001.6,P
1512470775.5,286047003.7,N
1512470795.3,286047001.9,N
1512470815.1,286047006.7,Y
1512470835.9,286047007.4,P
1512470855.7,286047006.2,P
1512470875.5,286047008.7,P
1512470895.4,286047007.1,Y
1512470915.2,286047002.3,P
1512470935.0,286046998.2,N
1512470935.9,286046998.2,N
1512470955.8,286047001.0,N
1512470975.6,286046997.8,N
1512470995.4,286046996.1,N
1512471015.2,286046991.9,N
1512471035.1,286046997.1,N
1512471036.0,286046997.1,N
1512471055.8,286046994.3,N
1512471075.6,286046992.1,N
1512471095.5,286046992.5,N
1512471115.3,286046990.9,N
1512471135.1,286046994.2,N
1512471155.9,286046993.6,N
1512471175.7,286046992.8,N
1512471195.5,286046992.9,N
1512471215.4,286046990.7,N
1512471235.2,286046990.8,N
1512471255.0,286046992.2,N
1512471255.9,286046992.2,N
1512471275.7,286046994.1,N
1512471295.6,286046993.2,N
1512471315.4,286046988.6,N
1512471335.2,286046988.8,N
1512471355.1,286046992.8,N
1512471356.0,286046992.8,N
1512471375.8,286046993.8,N
1512471395.6,286046994.8,N
1512471415.5,286046996.2,N
1512471435.3,286046993.3,N
1512471455.1,286046991.7,N
1512471475.9,286046992.2,N
1512471495.7,286046992.9,N
1512471515.5,286046993.0,Y
1512471535.4,286046997.7,P
1512471555.2,286046996.6,N
1512471575.0,286046995.8,N
1512471575.9,286046995.8,N
1512471595.8,286046997.4,N
